RH
98 96 96 96 97 97 99 99 98 100 95 61 37 36 36 35 34 35 35 34 41 44 47 46 51 54 60 67 77 71 78 72 73 68 64 67 74 78 84 90 76 73 51 45 46 37 35
96 99 100 100 99 99 98 99 99 100 91 49 34 34 34 34 34 34 33 30 38 40 43 44 54 55 64 82 67 70 72 71 64 65 76 72 88 80 83 84 86 68 58 42 39 32 40
96 98 99 99 99 99 98 99 100 97 70 31 32 32 32 34 33 33 33 30 34 38 41 44 52 55 63 71 58 56 65 68 64 69 81 83 77 72 78 81 78 79 60 41 32 30 45
98 98 99 99 99 98 98 100 100 100 58 29 29 31 33 34 33 32 32 32 34 36 41 47 51 58 68 53 56 56 58 63 65 64 76 80 74 84 87 79 77 92 43 50 34 35 48
97 96 97 100 98 99 99 100 100 100 80 30 30 37 34 32 33 32 31 33 32 40 39 41 49 55 66 52 56 57 57 61 65 66 68 73 78 87 69 73 47 42 60 48 41 34 48
98 96 98 90 89 87 84 82 96 96 62 30 31 38 38 34 32 32 30 32 34 36 41 43 45 56 53 60 55 58 58 61 63 65 69 64 76 77 63 57 67 48 48 38 46 36 39
97 97 91 87 67 57 56 44 58 86 51 32 36 43 39 37 32 32 29 39 46 54 42 50 52 54 50 46 51 52 55 59 56 61 77 70 69 75 56 48 38 32 33 35 37 36 38
98 98 81 81 64 49 49 45 37 48 45 36 38 43 40 38 33 33 42 46 60 61 66 41 42 44 43 45 56 51 51 63 68 81 70 74 79 60 44 43 42 40 36 44 37 33 37
100 99 92 62 50 52 49 43 35 33 37 37 36 39 39 36 35 41 36 53 51 62 67 42 39 38 39 42 57 50 45 58 67 72 68 79 61 40 42 45 44 39 39 46 44 32 36
96 88 67 64 58 49 43 42 38 29 32 36 33 38 37 39 49 47 58 51 54 56 77 45 40 39 38 41 51 38 36 48 54 72 73 78 51 51 39 45 47 46 37 39 42 50 71
92 84 68 61 55 51 42 36 33 32 27 30 35 38 41 39 52 58 63 51 52 57 58 33 38 30 34 42 39 40 37 43 51 49 49 52 58 59 51 54 44 42 37 37 42 53 58
90 83 73 64 60 51 46 41 30 27 29 30 40 36 44 50 51 48 48 52 58 71 48 44 34 39 41 37 37 36 38 40 35 44 45 46 45 50 54 52 39 46 30 37 48 64 75
93 81 75 67 63 57 49 44 35 28 25 31 41 38 45 50 61 46 49 68 78 67 39 50 50 43 42 39 35 37 42 53 61 67 72 57 48 47 49 51 40 41 52 77 64 72 65
85 79 78 71 63 60 57 47 36 27 23 30 41 42 50 48 55 54 61 62 45 51 48 41 43 46 43 38 35 42 51 63 52 55 84 74 65 57 50 51 56 58 53 80 59 72 68
82 79 80 74 66 61 58 54 43 27 24 30 49 52 57 48 50 56 73 83 70 54 52 59 54 44 43 38 39 36 51 58 51 52 58 66 55 45 48 47 46 50 66 40 63 64 71
80 80 81 76 72 64 61 54 49 30 22 37 51 57 56 39 43 59 74 67 58 49 52 52 54 41 45 43 44 38 49 48 56 49 46 51 50 44 42 42 46 47 39 62 78 62 66
78 81 82 78 74 68 59 52 48 36 22 36 58 66 53 38 50 69 83 64 52 45 52 58 56 50 44 40 42 47 51 54 53 57 53 47 47 46 42 45 49 52 45 44 56 70 79
80 83 83 79 77 73 61 55 50 36 24 33 65 68 51 43 64 72 68 56 53 48 47 50 48 45 42 37 40 42 49 56 51 53 58 48 54 58 40 46 44 48 46 44 69 48 56
81 84 83 80 79 77 68 62 53 48 36 49 62 61 51 52 64 70 54 52 50 49 44 47 43 42 39 38 41 37 42 53 52 54 48 50 52 76 57 53 48 46 42 40 44 60 45
80 83 82 80 81 77 70 66 59 48 38 44 58 67 64 60 56 48 44 43 54 52 48 42 43 39 40 36 33 34 36 52 50 51 57 55 45 54 63 44 49 46 46 44 45 79 43
81 85 84 81 84 81 77 67 60 47 38 51 62 66 53 54 55 42 41 44 45 52 48 42 44 41 39 44 44 34 36 44 50 53 48 43 42 44 36 37 36 43 44 49 50 48 47
82 87 84 82 85 81 82 71 63 50 47 50 62 56 64 58 48 45 49 50 45 43 46 45 45 38 39 45 43 47 46 49 52 48 45 46 46 44 51 36 36 42 42 41 48 54 52
82 85 87 85 87 84 86 76 67 57 45 62 66 60 62 65 50 50 55 42 42 42 43 43 44 44 45 47 50 48 50 50 48 52 59 52 56 67 63 62 63 52 54 49 38 39 46
78 85 88 91 91 89 90 84 73 64 55 70 66 73 74 61 49 46 40 41 43 46 49 46 43 45 50 46 48 50 54 53 50 51 55 64 55 70 84 69 49 35 35 39 38 33 35
86 90 95 95 96 92 88 89 79 72 66 59 69 77 83 68 52 43 44 44 45 47 49 48 54 56 53 48 61 63 63 54 56 57 57 61 67 71 80 80 55 42 38 33 36 36 38
100 100 99 100 91 99 94 97 84 78 73 73 68 74 81 73 57 48 52 47 58 59 57 54 55 53 51 65 64 62 60 46 61 68 58 61 66 73 78 75 53 36 35 30 32 44 34
100 100 100 100 100 100 99 99 93 87 78 74 76 70 82 84 70 51 57 58 54 57 63 58 62 61 56 74 73 72 62 42 46 53 78 79 77 81 82 80 67 39 34 32 43 39 33
97 98 99 99 100 100 100 99 100 100 92 77 87 81 77 90 84 63 54 59 61 64 64 60 62 68 74 73 78 71 65 57 54 48 65 70 83 84 79 80 76 40 38 42 39 40 37
100 99 96 92 91 89 88 85 83 85 97 98 94 88 79 82 81 71 60 53 52 49 66 66 61 64 67 76 80 74 69 70 65 62 45 56 57 57 62 62 46 44 38 38 46 45 41
Wind_Speed
11 11 12 13 14 15 15 13 13 11 9 6 5 6 8 8 9 12 15 14 10 8 7 10 9 13 8 0 4 13 14 9 10 4 3 4 3 4 2 3 6 5 3 9 11 10 6
11 11 12 13 15 16 16 15 14 12 10 7 5 6 7 8 9 12 14 14 10 8 6 7 5 10 4 5 11 10 12 8 9 3 8 7 1 4 3 3 4 6 12 9 7 8 2
10 11 12 14 15 16 17 17 17 15 10 6 6 7 7 8 10 12 14 13 9 5 7 5 5 6 4 2 8 11 7 9 7 9 5 9 11 5 3 4 5 18 10 6 5 3 2
10 11 12 13 15 16 18 19 18 17 11 7 7 8 8 9 10 11 13 12 7 5 4 4 4 4 0 7 10 10 8 5 6 6 10 10 9 8 3 8 9 13 5 5 3 4 2
10 10 11 13 15 16 18 19 19 19 15 8 9 10 9 10 9 9 11 12 4 7 3 6 5 2 4 9 6 9 7 5 2 7 6 9 7 4 5 5 3 2 4 3 3 3 3
10 11 12 13 14 16 18 19 20 20 17 10 10 11 10 9 8 7 10 13 4 7 5 3 4 3 6 4 7 9 4 4 1 1 3 1 3 3 3 2 2 3 2 2 5 3 4
10 11 12 13 14 16 19 21 22 22 20 11 10 12 11 8 6 5 8 4 5 4 6 3 2 3 3 8 6 3 4 4 3 3 2 4 2 1 5 3 3 1 3 5 1 6 5
10 11 11 13 14 17 19 21 22 24 23 13 9 12 12 8 4 1 3 4 3 2 2 3 3 3 4 4 1 3 3 2 4 3 4 5 2 6 7 8 6 6 2 4 4 2 5
11 12 12 13 14 17 19 21 23 24 25 16 8 12 11 8 2 3 5 5 2 3 2 2 2 1 3 3 3 4 4 2 2 3 4 3 5 6 5 4 6 4 9 4 7 3 4
9 11 12 14 14 16 19 21 23 24 26 19 8 10 9 3 2 2 3 2 2 2 4 6 2 3 1 2 1 2 1 2 3 2 1 3 7 4 1 3 4 4 5 4 9 4 5
9 10 12 13 14 16 19 21 23 25 26 21 9 8 7 6 2 2 1 1 2 2 5 6 4 2 2 1 2 3 2 1 4 5 3 4 5 7 6 2 4 4 4 5 4 4 5
9 11 12 13 14 16 18 21 22 24 26 21 8 5 4 2 3 2 1 1 2 6 2 5 1 5 2 2 2 3 1 2 3 3 3 1 2 2 3 6 4 4 5 8 5 3 2
9 10 11 13 14 16 18 21 23 25 26 20 7 3 6 2 2 1 2 2 5 6 3 7 3 4 3 3 1 0 2 6 4 5 4 5 2 3 3 5 6 6 6 3 3 3 5
9 9 11 13 14 16 18 20 22 24 26 19 4 1 5 5 1 2 2 5 8 5 2 2 4 6 1 2 2 4 3 4 5 3 2 3 7 6 8 2 1 3 4 4 5 3 3
8 8 10 13 14 16 17 20 23 23 26 18 2 1 1 5 1 3 4 6 5 1 4 5 7 3 4 3 2 2 3 2 2 4 3 4 3 2 2 2 2 4 2 0 4 3 3
9 7 9 12 13 15 17 20 23 23 25 14 1 1 1 5 2 3 5 3 1 2 4 3 3 3 5 6 4 3 2 3 4 3 2 2 2 0 2 1 1 2 2 0 3 2 2
8 5 8 10 12 15 16 18 23 24 22 11 2 3 0 1 2 4 4 2 2 2 2 3 3 4 3 4 4 4 3 2 4 6 3 2 2 4 3 3 1 3 2 3 4 4 2
7 5 8 9 12 13 15 18 21 24 22 7 2 3 1 1 4 2 3 3 2 1 3 2 1 3 2 2 4 4 4 2 5 3 3 3 2 2 1 2 1 1 2 2 4 3 2
10 7 8 9 11 13 14 17 19 22 20 7 2 2 1 2 2 2 3 3 2 2 1 2 1 2 2 3 1 1 1 1 4 4 1 4 2 3 7 4 2 1 2 3 3 3 4
12 9 9 8 9 10 12 15 18 19 17 5 2 3 4 4 1 5 2 2 4 2 2 1 2 1 2 2 4 2 1 3 2 2 2 1 1 5 5 5 3 2 1 1 4 2 2
14 11 11 9 9 9 10 13 16 18 12 3 3 2 3 2 3 1 1 3 2 4 3 4 2 3 0 2 5 0 3 0 2 2 2 4 1 0 5 6 3 4 4 4 6 5 3
16 14 12 10 9 8 9 11 14 18 7 2 2 2 3 2 1 1 2 4 4 2 5 4 4 4 2 3 3 3 2 2 1 3 2 0 2 2 3 1 4 5 7 7 6 5 6
19 16 14 13 10 9 7 8 10 14 6 3 1 2 4 3 2 3 3 2 2 2 2 2 3 1 3 3 1 2 2 2 3 1 2 2 1 2 4 3 6 5 6 8 5 6 7
22 19 17 16 13 11 8 5 5 9 10 2 1 2 3 3 1 3 1 1 1 1 2 1 0 1 0 2 3 1 3 4 3 2 2 1 1 2 3 6 3 4 2 3 7 4 6
27 23 21 18 16 14 10 7 4 3 6 5 2 1 3 2 1 2 2 2 2 1 2 2 2 1 3 3 3 4 3 2 1 2 1 2 2 0 2 2 7 2 2 2 1 4 6
22 21 22 22 19 15 14 11 7 3 2 2 5 2 2 4 2 3 1 0 2 2 2 1 1 2 2 2 2 1 3 3 2 1 2 1 2 3 2 2 5 1 2 0 2 4 1
19 17 16 17 16 13 12 12 12 8 5 3 1 3 1 2 3 2 3 3 2 2 1 1 2 1 2 2 1 3 3 0 2 3 4 2 1 4 3 4 7 3 4 1 1 5 4
15 14 12 11 12 12 11 10 9 11 8 6 4 2 1 1 4 4 4 4 1 2 3 3 2 1 2 2 3 3 3 2 2 2 5 6 5 4 2 3 7 6 3 7 5 2 5
17 13 13 11 9 9 8 6 5 7 4 10 4 4 3 3 4 4 8 10 7 4 4 2 3 3 4 2 2 1 2 1 4 3 1 3 6 3 8 5 4 7 5 5 5 4 4
Wind_Direction
19 17 15 15 14 12 7 4 357 353 342 330 315 328 329 335 345 348 351 346 345 331 319 352 348 343 340 107 351 343 332 4 6 303 273 237 204 174 288 349 305 230 263 245 266 288 292
18 14 10 12 10 10 8 4 360 356 351 337 314 323 322 326 335 341 349 346 344 357 335 342 18 17 6 29 339 331 341 357 5 150 61 87 149 125 30 330 323 321 241 235 242 263 263
15 11 11 11 11 8 5 3 1 356 354 343 325 316 318 317 321 332 344 342 359 351 5 5 355 6 50 234 3 0 297 339 17 133 112 121 135 99 5 318 108 256 250 218 217 248 107
13 11 10 13 12 8 8 5 2 358 351 347 330 321 310 310 310 320 337 350 354 359 358 17 340 355 84 351 327 353 6 360 47 94 129 97 122 113 71 270 233 237 172 121 231 181 357
12 12 14 13 12 8 7 5 3 1 356 345 333 331 313 302 304 310 327 340 320 339 317 311 329 165 337 338 3 343 19 11 45 70 102 128 45 39 238 240 105 144 155 147 132 206 126
14 12 11 12 13 10 11 9 5 1 357 355 340 333 323 302 297 306 322 324 299 328 331 287 357 48 353 319 319 329 338 11 357 159 107 120 145 304 290 68 169 163 130 208 129 194 75
16 11 12 8 12 13 13 12 8 2 360 351 348 344 335 315 291 308 334 344 24 8 31 95 185 152 270 312 288 317 349 340 337 28 70 235 49 219 272 317 335 25 205 189 29 173 111
13 8 11 9 10 11 11 11 9 6 1 0 353 352 344 334 298 270 350 74 143 193 330 249 270 260 250 309 293 348 343 53 23 29 333 20 27 299 324 336 316 319 192 129 22 49 102
13 7 6 11 11 10 7 7 8 5 3 4 357 1 356 350 107 91 95 110 141 160 158 248 226 294 256 39 335 330 356 354 2 71 64 87 277 313 314 2 2 319 147 205 151 156 57
5 4 7 7 8 6 5 5 5 4 2 2 1 4 8 18 74 94 66 53 96 146 75 311 304 266 217 193 307 252 316 242 228 155 114 263 309 279 59 21 14 33 24 241 127 88 149
354 357 2 5 4 3 2 2 1 3 0 358 2 5 16 45 31 55 56 3 77 94 48 280 306 190 194 109 285 302 210 104 323 310 103 281 336 26 36 291 339 281 291 153 115 101 94
344 349 356 1 0 360 358 358 357 359 359 358 3 16 32 85 52 50 3 85 100 44 299 330 265 326 359 226 222 318 286 238 249 339 22 185 246 146 220 241 223 270 30 43 59 80 56
331 348 354 356 355 356 355 355 355 356 355 355 6 45 44 69 137 51 69 50 35 86 275 313 310 325 328 346 23 43 63 29 38 30 345 343 31 325 15 3 10 15 51 29 25 21 206
317 335 347 351 352 354 353 352 353 352 352 352 8 87 49 46 48 129 103 51 67 261 333 332 311 306 246 30 260 16 84 25 0 45 72 66 346 7 337 70 190 328 124 149 172 174 237
309 323 338 343 350 351 351 351 351 352 350 350 20 79 332 356 94 137 77 49 194 301 312 341 322 5 345 343 301 88 54 32 8 32 102 32 323 252 278 325 42 337 48 238 135 62 67
297 309 332 338 347 351 351 353 351 354 352 353 15 243 179 353 132 115 73 142 131 351 330 333 23 14 9 331 24 37 118 320 331 7 61 302 8 340 304 311 234 162 250 122 4 99 272
274 290 325 330 342 351 355 356 354 353 358 358 30 33 192 58 145 51 106 178 135 127 31 22 342 343 18 5 328 26 351 346 357 313 322 11 111 298 26 27 314 337 316 48 117 124 143
246 275 306 319 332 345 355 356 358 354 358 2 43 43 328 189 47 46 118 151 216 140 204 263 253 311 313 352 7 12 5 349 339 300 335 360 150 251 245 185 164 219 281 92 108 301 230
242 267 288 309 326 337 349 355 359 357 359 340 88 240 225 299 90 2 266 155 147 198 171 358 300 59 305 295 69 87 68 229 10 11 348 337 4 18 340 357 303 253 206 121 112 81 241
245 261 275 296 318 331 343 350 354 357 350 360 51 21 328 40 156 136 192 232 171 190 238 201 252 226 297 258 217 290 352 208 178 132 250 352 271 160 188 216 193 290 283 95 115 121 259
243 257 262 278 305 318 335 343 349 355 347 330 55 263 191 291 321 28 139 199 219 180 207 191 224 221 137 300 332 19 341 135 229 220 245 127 230 14 260 251 219 231 234 208 192 217 160
244 253 257 268 288 305 326 336 348 356 356 28 109 89 358 272 232 192 172 230 215 245 162 190 187 201 171 209 180 263 19 61 117 311 293 333 280 5 299 95 229 258 249 239 243 244 251
242 248 253 261 274 280 299 326 353 3 3 77 24 106 108 272 244 112 224 200 223 108 308 165 163 135 245 198 217 223 230 249 238 358 315 357 77 47 277 336 296 286 232 188 200 203 169
241 245 247 253 256 259 270 297 346 18 28 29 32 124 98 274 196 211 193 69 125 282 282 172 144 173 282 312 309 281 272 245 250 243 140 335 14 109 273 351 8 259 85 178 213 214 204
240 238 240 244 248 245 246 262 279 30 37 57 22 204 126 214 300 350 21 195 142 143 280 230 62 78 351 353 6 353 345 333 238 106 86 171 123 208 134 251 292 220 258 182 122 287 209
220 227 226 229 240 245 232 235 245 229 93 78 38 347 114 127 236 271 293 330 198 188 348 243 4 14 68 96 65 268 247 243 232 275 9 63 97 124 145 189 246 269 220 102 90 290 253
122 127 157 192 204 208 213 224 230 224 190 159 86 355 261 150 254 140 204 190 168 130 189 167 204 78 48 101 151 214 264 284 238 212 178 142 152 194 212 242 283 209 181 122 126 239 182
104 105 108 118 117 114 132 147 169 208 202 191 167 267 286 193 273 203 197 186 167 137 160 214 46 324 61 156 167 247 198 250 321 203 183 177 159 213 174 206 270 162 109 173 214 203 190
89 92 90 84 81 83 87 104 118 100 98 200 183 183 220 185 246 270 249 243 243 223 153 204 204 167 194 126 226 155 247 217 185 252 251 247 196 203 185 217 228 203 201 208 175 187 213